When you browse on this site, cookies collect data to enhance your experience and personalize the content and advertising you see.
Visit our Privacy Policy to learn more. By continuing to use the site, you agree to this use of cookies and data.
  • en Suisse
  • Liste des pays
  • À 7 jours
  • Température de l'eau
  • Carte météo
  • Widgets météo
  • user-avatar
    Se connecter

    Météo par heure à Verhniy Tabyn

    Ce jour, 15 Septembre, Dimanche

    Heure Température Précipitation Vent Pression Humidité
    00:00 +15°C° 0 mm 4 m/s 748 mmHg 63%
    01:00 +15°C° 0 mm 4 m/s 748 mmHg 65%
    02:00 +15°C° 0.3 mm 4 m/s 748 mmHg 73%
    03:00 +14°C° 0.3 mm 3 m/s 748 mmHg 81%
    04:00 +15°C° 0 mm 2 m/s 747 mmHg 88%
    05:00 +15°C° 0.2 mm 2 m/s 747 mmHg 89%
    06:00 +15°C° 0.2 mm 2 m/s 747 mmHg 90%
    07:00 +15°C° 0.2 mm 2 m/s 747 mmHg 92%
    08:00 +15°C° 0.6 mm 2 m/s 747 mmHg 91%
    09:00 +14°C° 0.6 mm 3 m/s 747 mmHg 90%
    10:00 +14°C° 0.6 mm 3 m/s 747 mmHg 89%
    11:00 +13°C° 0.6 mm 4 m/s 747 mmHg 89%
    12:00 +13°C° 0.6 mm 4 m/s 747 mmHg 88%
    13:00 +13°C° 0.6 mm 5 m/s 747 mmHg 88%
    14:00 +12°C° 0.3 mm 4 m/s 747 mmHg 87%
    15:00 +12°C° 0.3 mm 3 m/s 747 mmHg 86%
    16:00 +12°C° 0.3 mm 2 m/s 748 mmHg 85%
    17:00 +12°C° 0 mm 2 m/s 748 mmHg 86%
    18:00 +12°C° 0 mm 2 m/s 747 mmHg 86%
    19:00 +10°C° 0 mm 3 m/s 747 mmHg 86%
    20:00 +10°C° 0 mm 3 m/s 747 mmHg 87%
    21:00 +10°C° 0 mm 3 m/s 747 mmHg 88%
    22:00 +9°C° 0 mm 3 m/s 747 mmHg 88%
    23:00 +9°C° 0 mm 3 m/s 747 mmHg 88%

    Demain, 16 Septembre, Lundi

    Heure Température Précipitation Vent Pression Humidité
    00:00 +8°C° 0 mm 3 m/s 747 mmHg 89%
    01:00 +8°C° 0 mm 3 m/s 747 mmHg 89%
    02:00 +8°C° 0 mm 3 m/s 747 mmHg 90%
    03:00 +7°C° 0 mm 3 m/s 746 mmHg 90%
    04:00 +7°C° 0 mm 3 m/s 746 mmHg 91%
    05:00 +7°C° 0 mm 3 m/s 746 mmHg 90%
    06:00 +7°C° 0 mm 3 m/s 746 mmHg 90%
    07:00 +7°C° 0 mm 3 m/s 745 mmHg 89%
    08:00 +8°C° 0.1 mm 4 m/s 745 mmHg 82%
    09:00 +9°C° 0.1 mm 5 m/s 745 mmHg 76%
    10:00 +11°C° 0.1 mm 6 m/s 744 mmHg 70%
    11:00 +11°C° 0.1 mm 7 m/s 744 mmHg 65%
    12:00 +12°C° 0.1 mm 7 m/s 744 mmHg 59%
    13:00 +13°C° 0.1 mm 8 m/s 743 mmHg 54%
    14:00 +12°C° 0.1 mm 7 m/s 743 mmHg 61%
    15:00 +10°C° 0.1 mm 7 m/s 742 mmHg 69%
    16:00 +9°C° 0.1 mm 7 m/s 742 mmHg 76%
    17:00 +9°C° 0.1 mm 7 m/s 742 mmHg 79%
    18:00 +9°C° 0.1 mm 7 m/s 741 mmHg 82%
    19:00 +9°C° 0.1 mm 8 m/s 741 mmHg 85%
    20:00 +9°C° 0.3 mm 7 m/s 740 mmHg 86%
    21:00 +9°C° 0.3 mm 7 m/s 740 mmHg 87%
    22:00 +9°C° 0.3 mm 7 m/s 739 mmHg 88%
    23:00 +9°C° 0.2 mm 7 m/s 739 mmHg 88%

    Après-demain, 17 Septembre, Mardi

    Heure Température Précipitation Vent Pression Humidité
    00:00 +9°C° 0.2 mm 7 m/s 738 mmHg 88%
    01:00 +9°C° 0.2 mm 7 m/s 738 mmHg 88%
    02:00 +9°C° 0 mm 7 m/s 738 mmHg 89%
    03:00 +9°C° 0 mm 7 m/s 738 mmHg 89%
    04:00 +8°C° 0 mm 6 m/s 738 mmHg 90%
    05:00 +8°C° 0 mm 6 m/s 739 mmHg 90%
    06:00 +8°C° 0 mm 6 m/s 739 mmHg 90%
    07:00 +8°C° 0 mm 6 m/s 739 mmHg 90%
    08:00 +9°C° 0 mm 6 m/s 739 mmHg 85%
    09:00 +10°C° 0 mm 7 m/s 739 mmHg 80%
    10:00 +11°C° 0 mm 7 m/s 739 mmHg 75%
    11:00 +12°C° 0.3 mm 7 m/s 739 mmHg 71%
    12:00 +13°C° 0.3 mm 8 m/s 739 mmHg 68%
    13:00 +15°C° 0.3 mm 8 m/s 739 mmHg 64%
    14:00 +13°C° 0.3 mm 8 m/s 739 mmHg 64%
    15:00 +14°C° 0.3 mm 7 m/s 739 mmHg 64%
    16:00 +14°C° 0.3 mm 7 m/s 739 mmHg 64%
    17:00 +13°C° 0.1 mm 6 m/s 739 mmHg 69%
    18:00 +12°C° 0.1 mm 5 m/s 739 mmHg 75%
    19:00 +11°C° 0.1 mm 4 m/s 739 mmHg 80%
    20:00 +10°C° 0 mm 4 m/s 739 mmHg 81%
    21:00 +10°C° 0 mm 4 m/s 739 mmHg 81%
    22:00 +8°C° 0 mm 4 m/s 740 mmHg 82%
    23:00 +8°C° 0 mm 4 m/s 740 mmHg 83%

    18 Septembre, Mercredi

    Heure Température Précipitation Vent Pression Humidité
    00:00 +8°C° 0 mm 4 m/s 740 mmHg 84%
    01:00 +7°C° 0 mm 4 m/s 740 mmHg 86%
    02:00 +7°C° 0 mm 4 m/s 740 mmHg 86%
    03:00 +7°C° 0 mm 4 m/s 740 mmHg 86%
    04:00 +6°C° 0 mm 4 m/s 740 mmHg 87%
    05:00 +7°C° 0 mm 4 m/s 740 mmHg 85%
    06:00 +7°C° 0 mm 4 m/s 739 mmHg 84%
    07:00 +7°C° 0 mm 4 m/s 739 mmHg 82%
    08:00 +8°C° 0 mm 4 m/s 739 mmHg 76%
    09:00 +10°C° 0 mm 5 m/s 739 mmHg 71%
    10:00 +12°C° 0 mm 5 m/s 739 mmHg 65%
    11:00 +13°C° 0 mm 5 m/s 739 mmHg 61%
    12:00 +13°C° 0 mm 5 m/s 739 mmHg 58%
    13:00 +14°C° 0 mm 5 m/s 739 mmHg 55%
    14:00 +14°C° 0 mm 5 m/s 738 mmHg 54%
    15:00 +14°C° 0 mm 4 m/s 738 mmHg 53%
    16:00 +14°C° 0 mm 4 m/s 737 mmHg 53%
    17:00 +13°C° 0.8 mm 4 m/s 737 mmHg 64%
    18:00 +11°C° 0.8 mm 3 m/s 737 mmHg 76%
    19:00 +10°C° 0.8 mm 3 m/s 736 mmHg 88%
    20:00 +10°C° 0.7 mm 3 m/s 736 mmHg 88%
    21:00 +10°C° 0.7 mm 4 m/s 736 mmHg 87%
    22:00 +10°C° 0.7 mm 4 m/s 736 mmHg 87%
    23:00 +8°C° 0.1 mm 4 m/s 736 mmHg 89%

    19 Septembre, Jeudi

    Heure Température Précipitation Vent Pression Humidité
    00:00 +7°C° 0.1 mm 4 m/s 735 mmHg 91%
    01:00 +7°C° 0.1 mm 4 m/s 735 mmHg 92%
    02:00 +6°C° 0 mm 4 m/s 735 mmHg 93%
    03:00 +6°C° 0 mm 4 m/s 735 mmHg 94%
    04:00 +5°C° 0 mm 3 m/s 735 mmHg 94%
    05:00 +5°C° 0 mm 4 m/s 736 mmHg 94%
    06:00 +5°C° 0 mm 4 m/s 736 mmHg 94%
    07:00 +5°C° 0 mm 4 m/s 736 mmHg 94%
    08:00 +6°C° 0.1 mm 5 m/s 737 mmHg 90%
    09:00 +7°C° 0.1 mm 6 m/s 738 mmHg 86%
    10:00 +8°C° 0.1 mm 6 m/s 738 mmHg 82%
    11:00 +9°C° 0.1 mm 7 m/s 739 mmHg 79%
    12:00 +9°C° 0.1 mm 7 m/s 740 mmHg 77%
    13:00 +9°C° 0.1 mm 7 m/s 741 mmHg 75%
    14:00 +10°C° 0.1 mm 7 m/s 742 mmHg 73%
    15:00 +10°C° 0.1 mm 7 m/s 742 mmHg 72%
    16:00 +10°C° 0.1 mm 8 m/s 743 mmHg 71%
    17:00 +9°C° 0.1 mm 7 m/s 744 mmHg 75%
    18:00 +8°C° 0.1 mm 6 m/s 745 mmHg 80%
    19:00 +7°C° 0.1 mm 5 m/s 745 mmHg 84%
    20:00 +7°C° 0 mm 5 m/s 746 mmHg 86%
    21:00 +6°C° 0 mm 5 m/s 746 mmHg 87%
    22:00 +6°C° 0 mm 5 m/s 747 mmHg 89%
    23:00 +6°C° 0 mm 4 m/s 747 mmHg 89%

    20 Septembre, Vendredi

    Heure Température Précipitation Vent Pression Humidité
    00:00 +6°C° 0 mm 4 m/s 748 mmHg 89%
    01:00 +6°C° 0 mm 4 m/s 748 mmHg 89%
    02:00 +5°C° 0.1 mm 4 m/s 748 mmHg 89%
    03:00 +5°C° 0.1 mm 4 m/s 748 mmHg 89%
    04:00 +5°C° 0.1 mm 4 m/s 748 mmHg 90%
    05:00 +5°C° 0 mm 4 m/s 748 mmHg 91%
    06:00 +4°C° 0 mm 4 m/s 748 mmHg 91%
    07:00 +4°C° 0 mm 4 m/s 748 mmHg 92%
    08:00 +5°C° 0 mm 4 m/s 749 mmHg 85%
    09:00 +7°C° 0 mm 4 m/s 749 mmHg 79%
    10:00 +8°C° 0 mm 4 m/s 749 mmHg 72%
    11:00 +10°C° 0 mm 4 m/s 749 mmHg 68%
    12:00 +10°C° 0 mm 4 m/s 749 mmHg 64%
    13:00 +11°C° 0 mm 3 m/s 749 mmHg 59%
    14:00 +11°C° 0 mm 3 m/s 749 mmHg 60%
    15:00 +12°C° 0 mm 3 m/s 748 mmHg 60%
    16:00 +12°C° 0 mm 3 m/s 748 mmHg 60%
    17:00 +11°C° 0.3 mm 3 m/s 748 mmHg 67%
    18:00 +10°C° 0.3 mm 3 m/s 747 mmHg 74%
    19:00 +9°C° 0.3 mm 3 m/s 747 mmHg 81%
    20:00 +9°C° 0.2 mm 3 m/s 747 mmHg 81%
    21:00 +8°C° 0.2 mm 4 m/s 747 mmHg 81%
    22:00 +7°C° 0.2 mm 4 m/s 747 mmHg 81%
    23:00 +7°C° 0.1 mm 4 m/s 747 mmHg 84%
    Voir plus